Hourly Data Report for March 12, 2003

TORONTO CITY
ONTARIO

43°40'00.000" N
79°24'00.000" W
112.50 m
6158355
71508
XTO

Download Data

Hourly Data (March 2003)
Hourly Data Report for March 12, 2003
TIME
LST
Temp Definition
°C
Dew Point Definition
°C
Rel Hum Definition
%
Precip. Amount Definition
mm

Wind Dir Definition
10's deg

Wind Spd Definition
km/h
Visibility Definition
km
Stn Press Definition
kPa
Hmdx Definition


Wind Chill Definition


Weather Definition


00:00 2.7 -3.7 63   LegendMM LegendMM LegendMM 99.57     LegendNANA
01:00 2.8 -3.8 62   LegendMM LegendMM LegendMM 99.57     LegendNANA
02:00 3.4 -2.6 65   LegendMM LegendMM LegendMM 99.59     LegendNANA
03:00 2.4 -0.6 81   LegendMM LegendMM LegendMM 99.59     LegendNANA
04:00 2.1 0.0 86   LegendMM LegendMM LegendMM 99.60     LegendNANA
05:00 1.9 -0.1 87   LegendMM LegendMM LegendMM 99.64     LegendNANA
06:00 1.8 0.5 91   LegendMM LegendMM LegendMM 99.72     LegendNANA
07:00 1.9 0.6 91   LegendMM LegendMM LegendMM 99.74     LegendNANA
08:00 -1.4 -3.7 84   LegendMM LegendMM LegendMM 99.91     LegendNANA
09:00 -1.8 -4.6 81   LegendMM LegendMM LegendMM 99.98     LegendNANA
10:00 -1.6 -5.7 74   LegendMM LegendMM LegendMM 100.05     LegendNANA
11:00 -1.4 -6.1 70   LegendMM LegendMM LegendMM 100.05     LegendNANA
12:00 -0.3 -8.3 55   LegendMM LegendMM LegendMM 100.08     LegendNANA
13:00 0.5 -7.8 54   LegendMM LegendMM LegendMM 100.10     LegendNANA
14:00 1.0 -8.1 51   LegendMM LegendMM LegendMM 100.12     LegendNANA
15:00 0.5 -6.9 58   LegendMM LegendMM LegendMM 100.17     LegendNANA
16:00 0.0 -6.1 63   LegendMM LegendMM LegendMM 100.23     LegendNANA
17:00 -0.4 -7.1 61   LegendMM LegendMM LegendMM 100.26     LegendNANA
18:00 -1.3 -6.3 69   LegendMM LegendMM LegendMM 100.38     LegendNANA
19:00 -1.2 -9.2 54   LegendMM LegendMM LegendMM 100.48     LegendNANA
20:00 -2.3 -10.0 55   LegendMM LegendMM LegendMM 100.56     LegendNANA
21:00 -3.1 -10.1 58   LegendMM LegendMM LegendMM 100.61     LegendNANA
22:00 -4.0 -10.7 60   LegendMM LegendMM LegendMM 100.68     LegendNANA
23:00 -5.0 -11.2 62   LegendMM LegendMM LegendMM 100.75     LegendNANA

Notes on Data Quality.

Legend

  • E = Estimated
  • M = Missing
  • NA = Not Available*
  • [empty] = Indicates an unobserved value
Date modified: